Satellite: NOAA-17
Catalog number: 27453
Epoch time:      12116.97219053
Element set:    0683
Inclination:      098.3394 deg
RA of node:       146.6360 deg
Eccentricity:    0.0010865
Arg of perigee:   313.2542 deg
Mean anomaly:     046.7739 deg
Mean motion:   14.24421480 rev/day
Decay rate:       3.08e-06 rev/day^2
Epoch rev:           51132
Checksum:              294

Satellite: NOAA-18
Catalog number: 28654
Epoch time:      12116.89926110
Element set:    0158
Inclination:      099.0422 deg
RA of node:       074.5655 deg
Eccentricity:    0.0013737
Arg of perigee:   305.1944 deg
Mean anomaly:     054.7937 deg
Mean motion:   14.11637454 rev/day
Decay rate:        1.3e-07 rev/day^2
Epoch rev:           35718
Checksum:              310

Satellite: NOAA-19
Catalog number: 33591
Epoch time:      12116.96633159
Element set:    0350
Inclination:      098.8617 deg
RA of node:       057.4109 deg
Eccentricity:    0.0014030
Arg of perigee:   165.3277 deg
Mean anomaly:     194.8327 deg
Mean motion:   14.11326807 rev/day
Decay rate:       5.08e-06 rev/day^2
Epoch rev:           16564
Checksum:              308

/EX
SB KEPS @ AMSAT  $ORB12117.M
Orbital Elements  12117.MISC

HR AMSAT ORBITAL ELEMENTS FOR MANNED AND MISCELLANEOUS SATELLITES
FROM WA5QGD FORT WORTH,TX April 26, 2012
Send SUBSCRIBE KEPS/UNSUBSCRIBE KEPS to majordomo@amsat.org only
BID: ORB12117.M
TO ALL RADIO AMATEURS BT

Satellite: HUBBLE
Catalog number: 20580
Epoch time:      12117.24583394
Element set:     990
Inclination:      028.4682 deg
RA of node:       123.4295 deg
Eccentricity:    0.0003528
Arg of perigee:   220.8182 deg
Mean anomaly:     139.2245 deg
Mean motion:   15.02409294 rev/day
Decay rate:      2.166e-05 rev/day^2
Epoch rev:             691
Checksum:              281

Satellite: ISS
Catalog number: 25544
Epoch time:      12118.04916667
Element set:     447
Inclination:      051.6424 deg
RA of node:       018.1816 deg
Eccentricity:    0.0009380
Arg of perigee:   287.1428 deg
Mean anomaly:     267.1485 deg
Mean motion:   15.57412237 rev/day
Decay rate:     1.8899e-04 rev/day^2
Epoch rev:           77004
Checksum:              316

Satellite: CO-58
Catalog number: 28895
Epoch time:      12117.29292389
Element set:     159
Inclination:      097.9199 deg
RA of node:       345.8281 deg
Eccentricity:    0.0016644
Arg of perigee:   317.2872 deg
Mean anomaly:     042.7014 deg
Mean motion:   14.60578417 rev/day
Decay rate:      1.076e-05 rev/day^2
Epoch rev:           34608
Checksum:              347

Satellite: FALCON
Catalog number: 30776
Epoch time:      12117.65931104
Element set:     333
Inclination:      035.4310 deg
RA of node:       231.4836 deg
Eccentricity:    0.0001794
Arg of perigee:   309.0985 deg
Mean anomaly:     050.9570 deg
Mean motion:   15.07189370 rev/day
Decay rate:      6.792e-05 rev/day^2
Epoch rev:           28247
Checksum:              293

Satellite: MAST
Catalog number: 31126
Epoch time:      12116.92689336
Element set:    0449
Inclination:      097.8760 deg
RA of node:       131.0831 deg
Eccentricity:    0.0092694
Arg of perigee:   273.8073 deg
Mean anomaly:     085.2544 deg
Mean motion:   14.54115719 rev/day
Decay rate:       7.08e-06 rev/day^2
Epoch rev:           26667
Checksum:              318

Satellite: CAPE1
Catalog number: 31130
Epoch time:      12116.57442125
Element set:    0455
Inclination:      097.8817 deg
RA of node:       127.1658 deg
Eccentricity:    0.0100453
Arg of perigee:   287.7305 deg
Mean anomaly:     071.2949 deg
Mean motion:   14.52879645 rev/day
Decay rate:       7.59e-06 rev/day^2
Epoch rev:           26613
Checksum:              310

Satellite: COMPASS
Catalog number: 32787
Epoch time:      12117.61946835
Element set:     286
Inclination:      097.8045 deg
RA of node:       180.0911 deg
Eccentricity:    0.0014436
Arg of perigee:   226.1556 deg
Mean anomaly:     133.8482 deg
Mean motion:   14.83803680 rev/day
Decay rate:      3.942e-05 rev/day^2
Epoch rev:           21616
Checksum:              307

Satellite: AAUSAT2
Catalog number: 32788
Epoch time:      12116.85838937
Element set:    0278
Inclination:      097.8078 deg
RA of node:       179.6992 deg
Eccentricity:    0.0013745
Arg of perigee:   228.8371 deg
Mean anomaly:     131.1688 deg
Mean motion:   14.84097893 rev/day
Decay rate:      3.278e-05 rev/day^2
Epoch rev:           21607
Checksum:              367

Satellite: DO-64
Catalog number: 32789
Epoch time:      12116.88865242
Element set:    0295
Inclination:      097.8159 deg
RA of node:       181.5587 deg
Eccentricity:    0.0013981
Arg of perigee:   225.0692 deg
Mean anomaly:     134.9406 deg
Mean motion:   14.85445676 rev/day
Decay rate:      6.364e-05 rev/day^2
Epoch rev:           21611
Checksum:              347

Satellite: CO-66
Catalog number: 32791
Epoch time:      12117.65684096
Element set:     277
Inclination:      097.8035 deg
RA of node:       179.9082 deg
Eccentricity:    0.0014717
Arg of perigee:   227.2499 deg
Mean anomaly:     132.7493 deg
Mean motion:   14.83252997 rev/day
Decay rate:      2.595e-05 rev/day^2
Epoch rev:           21610
Checksum:              348

